Location: Bednik
(45.3500°N, 16.3833°E)
Time: 05:30:56
(UTC+00:00)

GP-B - Pass Details

Date: 08 August 2020
Orbit: 632 x 635 km, 89.8° (Epoch: 19 September)

Event Time Altitude Azimuth Distance (km) Brightness Sun altitude
Rises 19:44:16 0° 6° (N) 2,944 7.1 -14.5°
Reaches altitude 10° 19:46:33 10° 11° (N) 2,030 6.1 -14.8°
Maximum altitude 19:50:55 53° 88° (E) 780 3.3 -15.3°
Enters shadow 19:53:16 25° 155° (SSE) 1,274 4.1 -15.7°
